Nuiqsut, AK

11:38 AM AKDT on April 27, 2017 (GMT -0800)
Nuiqsut

Weather History for PAQT - May, 2013

Change the Weather History Date:

Wednesday, May 8, 2013

  Actual Average (PAKU) Record (PAKU)
Temperature  
Mean Temperature 22 °F -  
Max Temperature 26 °F 20 °F 41 °F (2002)
Min Temperature 19 °F 10 °F -5 °F (1992)
Degree Days  
Heating Degree Days 42    
Moisture  
Dew Point 21 °F    
Average Humidity 93    
Maximum Humidity 100    
Minimum Humidity 82    
Precipitation  
Precipitation 0.16 in - - ()
Sea Level Pressure  
Sea Level Pressure 30.24 in    
Wind  
Wind Speed 9 mph (WSW)    
Max Wind Speed 14 mph    
Max Gust Speed -    
Visibility 7 miles    
Events Snow    
Averages and records for this station are not official NWS values.
T = Trace of Precipitation, MM = Missing Value Source: NWS Daily Summary

Daily Weather History Graph

Daily Weather History Graph

Search for Another Location

Airport or City:

Trip Planner

Search our weather history database for the weather conditions in past years. The results will help you decide how hot, cold, wet, or windy it might be!

Date:

Astronomy

May. 08, 2013 Rise Set
Actual Time 3:40 AM AKDT 12:26 AM AKDT
Civil Twilight Sun does not set Sun does not set
Nautical Twilight Sun does not set Sun does not set
Astronomical Twilight Sun does not set Sun does not set
Moon 4:10 AM AKDT (5/8) 10:47 PM AKDT (5/8)
Length of Visible Light 24h 00m
Length of Day
20h 46m
Waning Crescent, 1% of the Moon is Illuminated
May 8
Waning Crescent
May 9
New
May 17
First Quarter
May 24
Full
May 31
Last Quarter

Hourly Weather History & Observations

Time (AKDT) Temp. Windchill Dew Point Humidity Pressure Visibility Wind Dir Wind Speed Gust Speed Precip Events Conditions
12:53 AM 21.0 °F 9.9 °F 19.0 °F 92% 30.15 in 10.0 mi SW 10.4 mph - N/A   Unknown
1:40 AM 21.2 °F 9.5 °F 19.4 °F 93% 30.15 in 10.0 mi SW 11.5 mph - N/A   Overcast
1:53 AM 21.9 °F 9.2 °F 19.9 °F 92% 30.16 in 10.0 mi WSW 13.8 mph - N/A   Overcast
2:05 AM 21.2 °F 9.5 °F 19.4 °F 93% 30.16 in 10.0 mi WSW 11.5 mph - N/A   Overcast
2:20 AM 21.2 °F 10.1 °F 19.4 °F 93% 30.16 in 10.0 mi WSW 10.4 mph - N/A   Overcast
2:53 AM 21.0 °F 10.6 °F 19.9 °F 96% 30.17 in 10.0 mi WSW 9.2 mph - 0.00 in   Overcast
3:53 AM 19.9 °F 12.1 °F 19.9 °F 100% 30.17 in 4.0 mi WSW 5.8 mph - 0.00 in Snow Light Snow
4:23 AM 19.4 °F 12.8 °F 19.4 °F 100% 30.17 in 6.0 mi WSW 4.6 mph - 0.00 in Snow Light Snow
4:53 AM 19.9 °F 12.1 °F 19.9 °F 100% 30.18 in 6.0 mi WSW 5.8 mph - 0.00 in Snow Light Snow
5:53 AM 21.0 °F 14.6 °F 21.0 °F 100% 30.18 in 9.0 mi SSW 4.6 mph - 0.00 in Snow Light Snow
6:53 AM 21.9 °F 12.5 °F 21.0 °F 96% 30.19 in 3.0 mi SW 8.1 mph - 0.00 in Snow Light Snow
7:00 AM 21.2 °F 11.7 °F 21.2 °F 100% 30.18 in 2.0 mi SW 8.1 mph - 0.00 in Snow Light Snow
7:12 AM 21.2 °F 10.9 °F 21.2 °F 100% 30.18 in 4.0 mi SW 9.2 mph - 0.00 in Snow Light Snow
7:53 AM 21.9 °F 11.7 °F 21.9 °F 100% 30.19 in 4.0 mi SSW 9.2 mph - 0.00 in Snow Light Snow
8:24 AM 21.2 °F 11.7 °F 21.2 °F 100% 30.19 in 4.0 mi SSW 8.1 mph - 0.00 in Snow Light Snow
8:36 AM 21.2 °F 11.7 °F 21.2 °F 100% 30.19 in 4.0 mi SSW 8.1 mph - 0.00 in Snow Light Snow
8:53 AM 23.0 °F 14.7 °F 21.9 °F 96% 30.19 in 10.0 mi SSW 6.9 mph - 0.00 in   Overcast
9:10 AM 23.0 °F 14.7 °F 21.2 °F 93% 30.19 in 9.0 mi SSW 6.9 mph - 0.00 in   Overcast
9:31 AM 24.8 °F 15.3 °F 23.0 °F 93% 30.19 in 2.5 mi SW 9.2 mph - 0.00 in Snow Light Snow
9:40 AM 24.8 °F 16.1 °F 23.0 °F 93% 30.19 in 3.0 mi SW 8.1 mph - 0.00 in Snow Light Snow
9:48 AM 24.8 °F 14.0 °F 23.0 °F 93% 30.19 in 1.8 mi WSW 11.5 mph - 0.00 in Snow Light Snow
9:53 AM 25.0 °F 14.2 °F 23.0 °F 92% 30.20 in 1.8 mi WSW 11.5 mph - 0.00 in Snow Light Snow
10:03 AM 24.8 °F 14.0 °F 23.0 °F 93% 30.20 in 2.5 mi WSW 11.5 mph - 0.00 in Snow Light Snow
10:16 AM 24.8 °F 14.0 °F 23.0 °F 93% 30.20 in 1.2 mi WSW 11.5 mph - 0.00 in Snow Light Snow
10:36 AM 24.8 °F 14.0 °F 24.8 °F 100% 30.21 in 3.0 mi West 11.5 mph - 0.00 in Snow Light Snow
10:51 AM 24.8 °F 14.0 °F 24.8 °F 100% 30.21 in 3.0 mi West 11.5 mph - 0.00 in Snow Light Snow
10:53 AM 25.0 °F 14.2 °F 24.1 °F 96% 30.22 in 3.0 mi West 11.5 mph - 0.00 in Snow Light Snow
11:39 AM 26.6 °F 16.8 °F 24.8 °F 93% 30.22 in 4.0 mi West 10.4 mph - 0.00 in Snow Light Snow
11:53 AM 25.0 °F 16.3 °F 24.1 °F 96% 30.23 in 4.0 mi WNW 8.1 mph - 0.00 in Snow Light Snow
12:06 PM 24.8 °F 16.1 °F 23.0 °F 93% 30.24 in 3.0 mi NW 8.1 mph - 0.00 in Snow Light Snow
12:53 PM 24.1 °F 16.0 °F 21.0 °F 88% 30.25 in 4.0 mi NW 6.9 mph - 0.00 in Snow Light Snow
1:53 PM 24.1 °F 16.0 °F 21.9 °F 91% 30.27 in 7.0 mi WNW 6.9 mph - 0.02 in Snow Light Snow
2:53 PM 25.0 °F 17.1 °F 21.9 °F 88% 30.30 in 10.0 mi WNW 6.9 mph - 0.04 in   Overcast
3:53 PM 25.0 °F 16.3 °F 21.9 °F 88% 30.31 in 10.0 mi West 8.1 mph - 0.03 in   Overcast
4:10 PM 24.8 °F 16.9 °F 21.2 °F 86% 30.32 in 10.0 mi West 6.9 mph - 0.01 in   Overcast
4:53 PM 24.1 °F 16.0 °F 21.0 °F 88% 30.32 in 10.0 mi WNW 6.9 mph - 0.04 in   Overcast
5:36 PM 24.8 °F 17.9 °F 21.2 °F 86% 30.33 in 10.0 mi West 5.8 mph - 0.01 in   Overcast
5:53 PM 24.1 °F 18.2 °F 21.0 °F 88% 30.33 in 10.0 mi WNW 4.6 mph - 0.02 in   Overcast
6:06 PM 24.8 °F 19.1 °F 21.2 °F 86% 30.33 in 10.0 mi NNW 4.6 mph - N/A   Overcast
6:43 PM 21.2 °F 13.6 °F 17.6 °F 86% 30.34 in 10.0 mi North 5.8 mph - 0.01 in   Overcast
6:53 PM 21.9 °F 14.5 °F 18.0 °F 85% 30.34 in 10.0 mi North 5.8 mph - 0.01 in   Overcast
7:53 PM 21.9 °F 17.2 °F 17.1 °F 82% 30.35 in 10.0 mi NNE 3.5 mph - N/A   Overcast
8:53 PM 21.0 °F 16.2 °F 17.1 °F 85% 30.35 in 10.0 mi East 3.5 mph - N/A   Overcast
9:53 PM 19.0 °F 11.1 °F 16.0 °F 88% 30.35 in 10.0 mi East 5.8 mph - N/A   Overcast
10:53 PM 19.0 °F 10.0 °F 16.0 °F 88% 30.35 in 10.0 mi East 6.9 mph - N/A   Overcast
11:53 PM 19.9 °F 11.1 °F 18.0 °F 92% 30.35 in 10.0 mi ESE 6.9 mph - 0.00 in   Overcast